Location: Unspecified
(0.0000°N, 0.0000°E)
Time: 19:04:44
(UTC+00:00)

Vanguard 3 - Pass Details

Date: 19 November 2019
Orbit: 508 x 3263 km, 33.3° (Epoch: 08 December)

Event Time Altitude Azimuth Distance (km) Brightness Sun altitude
Rises 23:46:15 0° 278° (W) 3,714 - -70.4°
Reaches altitude 10° 23:50:25 10° 257° (WSW) 2,318 - -70.4°
Maximum altitude 23:53:21 15° 221° (SW) 1,737 - -70.3°
Drops below altitude 10° 23:55:49 10° 184° (S) 1,877 - -70.3°
Sets 23:58:38 0° 158° (SSE) 2,638 - -70.2°
